sat.trackr.live / text

‹ back to catalog

STARLINK-11643 [DTC]

NORAD 63192 · 2025-048K

PAYLOAD ACTIVE UNKNOWN

§ Identity

Operator
Country
US
Launch date
2025-03-13
Launch site
AFETR
Launch vehicle
Mass (kg)
RCS (m²)

Purposes: comms

External: N2YO · Heavens-Above · Gunter

§ Orbital elements

Epoch: 2026-09-20T21:45:43.639776Z

Period
91.67 min
Inclination
42.9993°
Eccentricity
0.0001389
Mean motion
15.70862138 rev/d
Perigee alt
355.5 km
Apogee alt
357.4 km
Semi-major
6,734.6 km
B*
1.3214e-3
RAAN
223.2002°
Arg perigee
269.9699°
Mean anomaly
90.1009°
Rev number
8,922

§ Raw data

STARLINK-11643 [DTC]1 63192U 25048K   26263.90675509  .00172840  00000+0  13214-2 0  99942 63192  42.9993 223.2002 0001389 269.9699  90.1009 15.70862138 89222

JSON: /api/v1/satellites/63192 · /tle

For live sub-satellite position, see the globe view (requires WebGL).

§ Visibility from observer

Set your observer location to see the next 7 days of passes ≥ 10°. The values pass through the URL so the page stays shareable.

No JS? Fill the form by hand. The geolocation button needs JavaScript.